• In Hungary
  • List of Countries
  • For 7 days
  • Water Temperature
  • Satellite Maps
  • Weather Map
  • News
  • Weather Widgets
  • user-avatar
    Login

    Hourly Weather SanFrancisco

    Today, 22 October, Sunday

    Time Temperature Precipitation Wind Pressure Humidity
    00:00 +25°C° 0 mm 5 mps 708 mmHg 83%
    01:00 +25°C° 0 mm 5 mps 708 mmHg 83%
    02:00 +23°C° 0 mm 4 mps 707 mmHg 83%
    03:00 +23°C° 0 mm 4 mps 707 mmHg 84%
    04:00 +23°C° 0 mm 4 mps 707 mmHg 84%
    05:00 +25°C° 0 mm 4 mps 708 mmHg 80%
    06:00 +26°C° 0 mm 5 mps 708 mmHg 76%
    07:00 +27°C° 0 mm 5 mps 709 mmHg 72%
    08:00 +29°C° 0 mm 5 mps 709 mmHg 64%
    09:00 +32°C° 0 mm 6 mps 710 mmHg 56%
    10:00 +34°C° 0 mm 6 mps 710 mmHg 48%
    11:00 +34°C° 0 mm 6 mps 709 mmHg 47%
    12:00 +34°C° 0 mm 6 mps 709 mmHg 47%
    13:00 +35°C° 0 mm 6 mps 708 mmHg 47%
    14:00 +34°C° 0.3 mm 6 mps 708 mmHg 49%
    15:00 +33°C° 0.3 mm 5 mps 707 mmHg 51%
    16:00 +33°C° 0.3 mm 5 mps 707 mmHg 54%
    17:00 +30°C° 0.3 mm 5 mps 707 mmHg 58%
    18:00 +28°C° 0.3 mm 4 mps 707 mmHg 63%
    19:00 +27°C° 0.3 mm 4 mps 708 mmHg 68%
    20:00 +26°C° 0 mm 4 mps 708 mmHg 72%
    21:00 +26°C° 0 mm 4 mps 708 mmHg 76%
    22:00 +25°C° 0 mm 4 mps 709 mmHg 80%
    23:00 +25°C° 0 mm 4 mps 708 mmHg 81%

    Tomorrow, 23 October, Monday

    Time Temperature Precipitation Wind Pressure Humidity
    00:00 +23°C° 0 mm 4 mps 708 mmHg 82%
    01:00 +23°C° 0 mm 4 mps 708 mmHg 84%
    02:00 +23°C° 0 mm 4 mps 708 mmHg 84%
    03:00 +24°C° 0 mm 3 mps 707 mmHg 85%
    04:00 +22°C° 0 mm 3 mps 707 mmHg 86%
    05:00 +24°C° 0 mm 3 mps 708 mmHg 82%
    06:00 +25°C° 0 mm 4 mps 708 mmHg 78%
    07:00 +26°C° 0 mm 4 mps 709 mmHg 73%
    08:00 +28°C° 0 mm 4 mps 709 mmHg 64%
    09:00 +32°C° 0 mm 4 mps 709 mmHg 55%
    10:00 +34°C° 0 mm 5 mps 710 mmHg 46%
    11:00 +35°C° 0 mm 5 mps 709 mmHg 44%
    12:00 +35°C° 0 mm 5 mps 708 mmHg 42%
    13:00 +36°C° 0 mm 5 mps 707 mmHg 40%
    14:00 +35°C° 0.1 mm 4 mps 707 mmHg 45%
    15:00 +34°C° 0.1 mm 4 mps 706 mmHg 49%
    16:00 +33°C° 0.1 mm 4 mps 706 mmHg 53%
    17:00 +30°C° 0.5 mm 4 mps 706 mmHg 60%
    18:00 +28°C° 0.5 mm 3 mps 707 mmHg 67%
    19:00 +27°C° 0.5 mm 3 mps 707 mmHg 74%
    20:00 +26°C° 0 mm 3 mps 707 mmHg 77%
    21:00 +26°C° 0 mm 3 mps 708 mmHg 81%
    22:00 +25°C° 0 mm 3 mps 708 mmHg 85%
    23:00 +25°C° 0 mm 3 mps 708 mmHg 86%

    Day after tomorrow, 24 October, Tuesday

    Time Temperature Precipitation Wind Pressure Humidity
    00:00 +24°C° 0 mm 3 mps 707 mmHg 88%
    01:00 +24°C° 0 mm 3 mps 707 mmHg 89%
    02:00 +24°C° 0 mm 3 mps 707 mmHg 90%
    03:00 +23°C° 0 mm 2 mps 707 mmHg 90%
    04:00 +23°C° 0 mm 2 mps 706 mmHg 91%
    05:00 +24°C° 0 mm 2 mps 707 mmHg 87%
    06:00 +25°C° 0 mm 3 mps 708 mmHg 83%
    07:00 +26°C° 0 mm 3 mps 708 mmHg 79%
    08:00 +28°C° 0 mm 3 mps 708 mmHg 69%
    09:00 +31°C° 0 mm 3 mps 709 mmHg 58%
    10:00 +34°C° 0 mm 3 mps 709 mmHg 47%
    11:00 +34°C° 0 mm 3 mps 708 mmHg 46%
    12:00 +35°C° 0 mm 3 mps 708 mmHg 44%
    13:00 +35°C° 0 mm 3 mps 707 mmHg 43%
    14:00 +34°C° 0.6 mm 3 mps 706 mmHg 50%
    15:00 +33°C° 0.6 mm 3 mps 706 mmHg 57%
    16:00 +30°C° 0.6 mm 3 mps 705 mmHg 63%
    17:00 +29°C° 1.2 mm 2 mps 706 mmHg 69%
    18:00 +27°C° 1.2 mm 2 mps 706 mmHg 75%
    19:00 +26°C° 1.2 mm 2 mps 707 mmHg 81%
    20:00 +26°C° 0.2 mm 2 mps 707 mmHg 83%
    21:00 +25°C° 0.2 mm 2 mps 708 mmHg 85%
    22:00 +25°C° 0.2 mm 2 mps 708 mmHg 88%
    23:00 +24°C° 0.1 mm 2 mps 708 mmHg 89%

    25 October, Wednesday

    Time Temperature Precipitation Wind Pressure Humidity
    00:00 +24°C° 0.1 mm 2 mps 707 mmHg 91%
    01:00 +24°C° 0.1 mm 2 mps 707 mmHg 92%
    02:00 +24°C° 0.3 mm 2 mps 707 mmHg 92%
    03:00 +23°C° 0.3 mm 2 mps 707 mmHg 92%
    04:00 +23°C° 0.3 mm 2 mps 707 mmHg 92%
    05:00 +24°C° 0.1 mm 2 mps 708 mmHg 89%
    06:00 +25°C° 0.1 mm 1 mps 708 mmHg 86%
    07:00 +25°C° 0.1 mm 1 mps 709 mmHg 83%
    08:00 +27°C° 0 mm 1 mps 709 mmHg 73%
    09:00 +29°C° 0 mm 1 mps 709 mmHg 63%
    10:00 +31°C° 0 mm 1 mps 709 mmHg 53%
    11:00 +32°C° 0.3 mm 2 mps 709 mmHg 54%
    12:00 +32°C° 0.3 mm 2 mps 708 mmHg 54%
    13:00 +32°C° 0.3 mm 2 mps 707 mmHg 55%
    14:00 +31°C° 1.5 mm 2 mps 707 mmHg 61%
    15:00 +30°C° 1.5 mm 2 mps 707 mmHg 68%
    16:00 +28°C° 1.5 mm 3 mps 706 mmHg 74%
    17:00 +27°C° 2.4 mm 2 mps 707 mmHg 78%
    18:00 +26°C° 2.4 mm 2 mps 707 mmHg 82%
    19:00 +25°C° 2.4 mm 1 mps 708 mmHg 87%
    20:00 +25°C° 1.8 mm 1 mps 708 mmHg 87%
    21:00 +25°C° 1.8 mm 1 mps 709 mmHg 87%
    22:00 +25°C° 1.8 mm 1 mps 709 mmHg 87%
    23:00 +25°C° 1.6 mm 1 mps 709 mmHg 88%

    26 October, Thursday

    Time Temperature Precipitation Wind Pressure Humidity
    00:00 +24°C° 1.6 mm 1 mps 708 mmHg 89%
    01:00 +24°C° 1.6 mm 1 mps 708 mmHg 90%
    02:00 +24°C° 1.1 mm 1 mps 708 mmHg 90%
    03:00 +24°C° 1.1 mm 1 mps 708 mmHg 91%
    04:00 +23°C° 1.1 mm 1 mps 708 mmHg 91%
    05:00 +24°C° 0.6 mm 1 mps 708 mmHg 89%
    06:00 +25°C° 0.6 mm 1 mps 709 mmHg 87%
    07:00 +23°C° 0.6 mm 0 mps 709 mmHg 84%
    08:00 +27°C° 0 mm 1 mps 709 mmHg 76%
    09:00 +29°C° 0 mm 1 mps 710 mmHg 68%
    10:00 +31°C° 0 mm 1 mps 710 mmHg 60%
    11:00 +31°C° 0.7 mm 1 mps 709 mmHg 60%
    12:00 +31°C° 0.7 mm 1 mps 709 mmHg 61%
    13:00 +31°C° 0.7 mm 1 mps 708 mmHg 61%
    14:00 +30°C° 1.2 mm 1 mps 708 mmHg 65%
    15:00 +29°C° 1.2 mm 1 mps 707 mmHg 69%
    16:00 +29°C° 1.2 mm 1 mps 707 mmHg 73%
    17:00 +28°C° 0.8 mm 1 mps 707 mmHg 78%
    18:00 +26°C° 0.8 mm 1 mps 708 mmHg 82%
    19:00 +25°C° 0.8 mm 1 mps 708 mmHg 86%
    20:00 +25°C° 0.3 mm 1 mps 708 mmHg 87%
    21:00 +25°C° 0.3 mm 1 mps 708 mmHg 88%
    22:00 +24°C° 0.3 mm 1 mps 709 mmHg 89%
    23:00 +24°C° 0.6 mm 1 mps 708 mmHg 90%

    27 October, Friday

    Time Temperature Precipitation Wind Pressure Humidity
    00:00 +24°C° 0.6 mm 1 mps 708 mmHg 92%
    01:00 +24°C° 0.6 mm 1 mps 707 mmHg 93%
    02:00 +23°C° 0.5 mm 1 mps 707 mmHg 93%
    03:00 +23°C° 0.5 mm 2 mps 707 mmHg 94%
    04:00 +23°C° 0.5 mm 2 mps 707 mmHg 95%
    05:00 +23°C° 0.1 mm 2 mps 708 mmHg 92%
    06:00 +24°C° 0.1 mm 2 mps 708 mmHg 90%
    07:00 +25°C° 0.1 mm 2 mps 709 mmHg 88%
    08:00 +27°C° 0 mm 2 mps 709 mmHg 78%
    09:00 +29°C° 0 mm 2 mps 709 mmHg 69%
    10:00 +31°C° 0 mm 2 mps 709 mmHg 59%
    11:00 +31°C° 0.3 mm 2 mps 709 mmHg 56%
    12:00 +32°C° 0.3 mm 2 mps 708 mmHg 54%
    13:00 +34°C° 0.3 mm 2 mps 707 mmHg 51%
    14:00 +32°C° 0.6 mm 2 mps 707 mmHg 57%
    15:00 +31°C° 0.6 mm 2 mps 707 mmHg 62%
    16:00 +30°C° 0.6 mm 2 mps 706 mmHg 67%
    17:00 +28°C° 0.9 mm 2 mps 707 mmHg 73%
    18:00 +27°C° 0.9 mm 2 mps 707 mmHg 79%
    19:00 +26°C° 0.9 mm 2 mps 707 mmHg 84%
    20:00 +25°C° 0.2 mm 2 mps 708 mmHg 86%
    21:00 +25°C° 0.2 mm 2 mps 708 mmHg 89%
    22:00 +25°C° 0.2 mm 2 mps 708 mmHg 91%
    23:00 +24°C° 0.4 mm 2 mps 708 mmHg 92%
    Show more